User: anonymous   Login
Location: Unspecified
(42.1900°N, 71.3291°W)
Time: 17:46:56
(UTC-05:00)
Language:

Resurs 1-4 Rocket - Orbit

View from above orbital plane
View from above orbital plane
View from above satellite
View from above satellite

Ground track
Ground track

The orbit data is extracted from the following two-line orbital elements,

1 25400U 98043G   17058.49906291 -.00000004  00000-0  16226-4 0  9992
2 25400  98.4759  10.2993 0008710 255.3435 104.6780 14.25404226969440
Epoch (UTC): 27 February 2017 11:58:39
Eccentricity: 0.0008710
inclination: 98.4759°
perigee height: 801 km
apogee height: 813 km
right ascension of ascending node: 10.2993°
argument of perigee: 255.3435°
revolutions per day: 14.25404226
mean anomaly at epoch: 104.6780°
orbit number at epoch: 96944

The dashed part of the orbit path shows where the satellite is in the earth's shadow,  

DLR